Location: Casa Balzano
(40.7833°N, 14.4333°E)
Time: 07:53:39
(UTC+00:00)

Daily predictions for brighter satellites

Satellite Brightness Start Highest point End
(mag) Time Altitude Azimuth Time Altitude Azimuth Time Altitude Azimuth
CZ-2C R/B 4.0 16:28:38 10° ESE 16:33:03 28° ENE 16:37:41 10° N
Cosmos 1634 Rocket 4.0 16:27:35 10° N 16:33:52 82° E 16:40:09 10° S
H-2A R/B 2.7 16:30:59 10° S 16:34:56 76° WSW 16:39:05 10° NNW
Okean-O 4.2 16:32:34 10° E 16:35:08 15° ENE 16:37:42 10° NNE
H-2A R/B 3.4 16:33:06 10° E 16:36:11 17° ENE 16:39:17 10° NNE
Okean O Rocket 1.6 16:33:20 10° SSE 16:37:46 75° ENE 16:42:13 10° N
SMAP 3.3 16:35:08 10° S 16:39:46 77° WSW 16:44:27 10° NNW
Cosmos 1626 3.2 16:37:14 10° SSW 16:40:49 47° W 16:44:23 10° N
OE (NEXTSAT) 4.5 16:37:42 10° WSW 16:41:07 68° NNW 16:44:34 10° ENE
CZ-4B R/B 2.0 16:38:06 10° NNE 16:41:16 37° E 16:44:20 10° SSE
CZ-4B R/B 3.3 16:36:12 10° SSE 16:41:43 87° WSW 16:47:23 10° NNW
SL-24 R/B 4.2 16:38:06 10° SSE 16:42:23 86° WSW 16:46:57 10° NNW
Cosmos 773 Rocket 4.0 16:38:34 10° NNW 16:43:40 58° ENE 16:48:42 10° SSE
Aureole 2 Rocket 3.3 16:43:06 10° SSE 16:45:30 23° ESE 16:47:59 10° NE
AQUARIUS 4.5 16:42:14 10° S 16:46:43 74° WSW 16:51:13 10° NNW
Cosmos 1818 4.2 16:44:01 10° S 16:48:57 37° ESE 16:53:56 10° NE
Cosmos 1689 Rocket 3.9 16:48:09 12° ENE 16:49:05 13° E 16:50:33 10° SE
Cosmos 1603 4.1 16:47:07 10° NNW 16:52:49 71° WSW 16:58:30 10° SSE
Meteor 2-10 Rocket 3.9 16:48:13 10° N 16:53:27 42° ENE 16:58:26 10° SE
CZ-2D R/B 3.7 16:51:00 10° SE 16:54:35 38° ENE 16:58:11 10° N
YAOGAN 1 3.6 16:53:52 10° ESE 16:57:17 23° ENE 17:00:43 10° NNE
Cosmos 1892 Rocket 3.5 16:53:26 10° S 16:57:43 64° E 17:02:01 10° NNE
Cosmos 1606 Rocket 3.5 16:54:11 10° N 16:58:36 89° E 17:03:01 10° S
TELKOM 3 3.0 16:57:05 10° WSW 16:59:22 67° NNW 17:01:03 18° NE
H-2A R/B 3.1 16:55:27 10° N 16:59:44 48° WNW 17:03:54 10° SW
ATLAS 5 CENTAUR R/B 3.2 16:57:12 10° WSW 17:00:39 27° NW 17:04:28 10° NNE
Helios 1A Rocket 4.2 17:00:05 10° ESE 17:03:10 21° ENE 17:06:17 10° NNE
MOS 1 Rocket 3.1 17:05:03 10° NNE 17:09:17 55° E 17:13:29 10° S
Cosmos 2228 3.7 17:06:20 10° NNW 17:10:32 58° W 17:14:44 10° S
ATLAS 3B R/B 3.9 17:04:08 10° NW 17:10:50 48° WSW 17:17:45 10° S
BREEZE-M DEB (TANK) 3.7 17:09:11 10° W 17:11:48 33° SSW 17:15:29 10° SE
CZ-4C R/B 4.4 17:11:41 10° WNW 17:15:00 16° NNW 17:18:42 10° N
SJ 16-02 1.6 17:10:56 10° S 17:15:10 47° ESE 17:18:57 13° NNE
SKYMED 2 3.5 17:10:51 10° NNE 17:15:13 90° NE 17:19:33 10° SSW
Nadezhda 4 Rocket 4.0 17:10:06 10° S 17:16:14 59° E 17:22:19 10° NNE
Cosmos 1538 Rocket 3.9 17:12:13 10° NNW 17:17:22 66° ENE 17:22:30 10° SSE
Aureole 3 3.6 17:14:23 10° NNE 17:17:23 28° ENE 17:20:03 10° SE
Cosmos 1777 Rocket 4.4 17:13:18 10° SSW 17:18:31 65° WNW 17:23:46 10° NNE
CZ-3B R/B 3.4 17:16:15 10° NNW 17:18:46 23° NE 17:20:09 20° ENE
Cosmos 2263 Rocket 4.0 17:16:01 10° WSW 17:20:53 29° NW 17:25:46 10° N
Cosmos 1455 2.4 17:24:23 10° N 17:28:04 46° E 17:31:45 10° SSE
Cosmos 2058 Rocket 3.1 17:25:32 10° N 17:30:03 87° W 17:34:34 10° S
Cosmos 1703 3.8 17:27:23 10° SSE 17:30:57 36° E 17:31:37 33° ENE
X-37B 0.5 17:29:17 10° WSW 17:32:28 85° SSE 17:33:14 48° ENE
Cosmos 1340 4.3 17:29:32 10° SSE 17:31:00 19° SE 17:31:00 19° SE
Meteor 2-13 Rocket 4.3 17:28:38 10° S 17:34:42 80° E 17:40:52 10° N
ARGOS 3.5 17:30:31 10° SE 17:35:29 41° ENE 17:40:30 10° N
Cosmos 44 3.7 17:34:49 10° S 17:39:10 39° ESE 17:40:17 34° E
Okean 1-7 Rocket 3.9 17:34:45 10° SSW 17:39:16 69° W 17:43:49 10° N
Lacrosse 5 2.1 17:38:42 10° NW 17:43:35 47° NE 17:45:00 37° E
ISS -3.3 17:41:00 10° WSW 17:44:18 54° NNW 17:45:00 44° NNE
CSL-04 Debris 4.2 17:40:21 10° SE 17:45:33 51° ENE 17:50:46 10° N
ERS-2 2.7 17:42:11 10° N 17:45:45 58° WNW 17:49:19 10° SSW
CZ-2C R/B 3.1 17:45:49 30° NE 17:47:48 40° E 17:53:01 10° SSE
PSLV R/B 4.1 17:43:59 10° N 17:48:12 76° WNW 17:52:24 10° SSW
COSMOS 2455 3.7 17:42:27 10° SW 17:48:15 49° NW 17:54:02 10° NNE
EXPRESS MD2 3.7 17:41:55 10° WNW 17:49:07 76° NNE 17:50:21 45° ESE
Cosmos 1626 Rocket 3.4 17:46:07 10° S 17:50:27 82° E 17:54:01 16° N
Cosmos 1844 3.7 17:47:13 10° SSW 17:52:51 86° WNW 17:57:10 18° NNE
Cosmos 2026 Rocket 4.0 17:47:27 10° SSE 17:53:19 53° E 17:59:18 10° NNE
Cosmos 990 Rocket 4.0 17:49:23 10° S 17:54:30 59° ESE 17:56:17 38° NE
CZ-4 R/B 1.7 17:50:56 10° S 17:55:02 67° WSW 17:59:06 10° NNW
Cosmos 1328 4.4 17:52:49 10° S 17:55:43 41° SE 17:55:43 41° SE
Cosmos 1833 Rocket 4.5 17:53:08 10° N 17:54:41 15° NNE 17:54:41 15° NNE
NOSS 2-1 (C) 3.8 17:58:07 10° SSW 18:00:30 38° S 18:00:30 38° S
USA 267 3.3 18:04:12 40° ENE 18:06:23 58° SE 18:12:48 10° SSW
DMSP B5D1-3 4.5 18:01:31 11° NNE 18:06:30 82° WNW 18:11:35 10° SSW
NOSS 2-1 (D) 4.0 18:03:59 10° SSW 18:06:13 37° SSW 18:06:13 37° SSW
Hubble Space Telescope 3.0 18:06:09 10° SSW 18:08:28 15° S 18:08:45 14° S
Okean-O 3.4 18:06:51 10° S 18:11:09 52° W 18:15:30 10° NNW
Meteor 1-11 4.4 18:06:09 10° S 18:11:11 51° ESE 18:11:11 51° ESE
Cosmos 1844 Rocket 3.6 18:09:35 10° SW 18:15:01 46° WNW 18:19:24 15° N
H-2A R/B 2.4 18:10:11 10° S 18:15:03 60° W 18:20:05 10° NNW
Cosmos 923 Rocket 4.0 18:13:43 10° NNW 18:19:05 80° WSW 18:23:16 17° SSE
Cosmos 1898 Rocket 3.4 18:17:45 10° SSW 18:23:02 89° WNW 18:23:42 69° NNE
Cosmos 2278 Rocket 3.8 18:18:39 10° S 18:20:26 20° SSE 18:20:26 20° SSE
Cosmos 158 Rocket 4.4 18:19:09 10° NNW 18:24:27 65° WSW 18:29:47 10° S
Meteor 2-8 Rocket 4.3 18:18:39 10° N 18:24:46 90° E 18:30:53 10° S
Meteor 2-15 4.5 18:19:22 10° N 18:24:42 58° NE 18:24:42 58° NE
Cosmos 1680 Rocket 3.3 18:21:13 10° NNW 18:26:29 89° ENE 18:26:36 86° SSE
Cosmos 2098 Rocket 4.2 18:23:04 10° S 18:29:58 84° E 18:37:28 10° N
Cosmos 1602 Rocket 4.4 18:26:25 10° SSW 18:30:36 48° W 18:31:34 40° NW
YAOGAN 1 4.4 18:29:24 10° SSW 18:33:14 30° W 18:37:04 10° NW
CSL-04 Rocket 4.1 18:31:33 10° S 18:36:51 60° W 18:42:15 10° NNW
USA 234 4.0 18:40:19 36° NNE 18:40:19 36° NNE 18:45:32 10° NW
Iridium 4 Rocket 4.5 18:42:59 10° NNW 18:48:23 48° W 18:53:21 10° SSW
SJ 16-02 4.0 18:51:14 10° W 18:54:00 16° WNW 18:55:59 13° NNW
Cosmos 2344 4.3 18:47:19 10° NNW 18:56:56 71° NE 18:59:35 57° ESE
Cosmos 1937 Rocket 4.5 18:53:05 10° SSW 18:56:45 42° SW 18:56:45 42° SW
Lacrosse 5 4.1 19:22:00 10° WNW 19:24:15 22° W 19:24:15 22° W
CZ-2C R/B 4.4 19:27:19 28° NW 19:27:53 29° WNW 19:32:34 10° WSW
NOSS 3-1 (C) 4.4 19:27:58 10° NW 19:34:40 62° W 19:34:40 62° W
